Regional Weather Roundup
Issued by NWS

Home | Current Version | Previous Version | Text Only | Print | Product List | Glossary Off
Versions: 1 2 3 4 5 6 7 8 9 10 11 12 13 14 15 16 17 18 19 20 21 22 23 24 25 26 27 28 29 30 31 32 33 34 35 36 37 38 39 40 41 42 43 44 45 46 47 48 49 50

000
ASUS45 KBOU 291207
RWRCO

WEATHER ROUNDUP FOR COLORADO
NATIONAL WEATHER SERVICE DENVER/BOULDER CO
600 AM MDT FRI AUG 29 2014

NOTE: "FAIR" INDICATES FEW OR NO CLOUDS BELOW 12000 FEET WITH NO
SIGNIFICANT WEATHER AND/OR OBSTRUCTIONS TO VISIBILITY.

COZ001>005-013-030-031-291300-
...NORTHWEST COLORADO...

CITY           SKY/WX    TMP DP  RH WIND       PRES   REMARKS
CRAIG            N/A     47  44  90 CALM      30.23S
HAYDEN         CLEAR     46  43  87 E10       30.25S
MEEKER         PTCLDY    48  44  86 E6        30.26R
MOUNT WERNER   NOT AVBL
STEAMBOAT SPGS CLEAR     44  44  99 CALM      30.28R
WALDEN         PTCLDY    39  36  87 SE3       30.32R
$$

COZ006>008-011-291300-
...WEST CENTRAL VALLEYS...

CITY           SKY/WX    TMP DP  RH WIND       PRES   REMARKS
GRAND JUNCTION MOCLDY    59  50  72 SE13      30.16R
MONTROSE       PTCLDY    51  44  77 SE8       30.24R
EAGLE          CLEAR     43  43 100 E5        30.33R
RIFLE          PTCLDY    50  47  89 SE6       30.23R
DELTA          PTCLDY    55  49  80 E5        30.21S
NUCLA          PTCLDY    50  43  76 CALM      30.26R
$$

COZ017>023-064>068-291300-
...SOUTHWEST COLORADO...

CITY           SKY/WX    TMP DP  RH WIND       PRES   REMARKS
DURANGO        CLEAR     45  37  73 N8        30.24R
CORTEZ         CLEAR     44  41  89 CALM      30.21R
PAGOSA SPRINGS CLEAR     43  33  68 CALM      30.31R
TELLURIDE      CLEAR     43  36  75 E6        30.40R
WOLF CREEK PAS CLEAR     36  28  75 NE7       30.53R
$$

COZ009-010-012-014-032>034-037-058>063-291300-
...CENTRAL COLORADO...

CITY           SKY/WX    TMP DP  RH WIND       PRES   REMARKS
ASPEN          CLEAR     44  40  85 S5        30.33S
BUENA VISTA    CLEAR     45  38  77 CALM      30.33R
COPPER MTN     FOG       41  37  87 SW3       30.55R VSB 3/4
BERTHOUD PASS  FOG       34  32  93 NW18      30.56R VSB<1/4 WCI  23
COTTONWOOD PAS CLEAR     48  34  57 W9        30.42R
GUNNISON       CLEAR     39  36  87 N3        30.38R
KREMMLING      FOG       37  36  93 CALM      30.34S VSB 1/4
LEADVILLE      CLEAR     38  35  89 NE7       30.42S
MONARCH PASS   FOG       36  34  93 W9        30.63R VSB 1
SALIDA         CLEAR     44  39  84 W3        30.39R
SUNLIGHT       CLEAR     45  41  87 CALM      30.50S
WILKERSON PASS NOT AVBL
$$

COZ069>075-291300-
...SAN LUIS VALLEY/SANGRE DE CRISTO MOUNTAINS...

CITY           SKY/WX    TMP DP  RH WIND       PRES   REMARKS
ALAMOSA        PTCLDY    36  33  89 CALM      30.31R
LA VETA PASS   NOT AVBL
SAGUACHE       NOT AVBL
$$

COZ035-036-038>040-291300-
...NORTHERN COLORADO FRONT RANGE...

CITY           SKY/WX    TMP DP  RH WIND       PRES   REMARKS
DENVER INTL AP PTCLDY    55  44  66 SW12      30.09R
DMNS CITY PARK   N/A     55  44  68 S5        30.10S
AURORA         PTCLDY    53  44  70 SW10      30.12R
FRONT RANGE AP CLEAR     57  45  62 SW8       30.10S
ERIE MUNI ARPT PTCLDY    48  46  91 CALM      30.08R
BOULDER MUN AP PTCLDY    55  45  67 CALM      30.08R
CENTENNIAL     PTCLDY    56  41  57 SW12      30.13R
BROOMFIELD     CLEAR     63  41  45 W10       30.11R
FORT COLLINS   PTCLDY    54  48  82 CALM      30.08R
LONGMONT       MOCLDY    51  46  83 CALM      30.09R
$$

COZ041-046-047-076>085-087-088-291300-
...PIKES PEAK/PALMER DIVIDE AND SOUTHERN FOOTHILLS...

CITY           SKY/WX    TMP DP  RH WIND       PRES   REMARKS
COLO. SPRINGS  CLEAR     56  40  55 NW10      30.16R
A. F. ACADEMY  CLEAR     45  39  81 NE6       30.18R
ELLICOTT       CLEAR     49  41  74 CALM      30.14R
FALCON         CLEAR     53  37  56 NW8       30.20R
FORT CARSON    CLEAR     51  41  70 NW8       30.13S
LIMON          CLEAR     50  45  83 NW6       30.10R
MONUMENT HILL  CLEAR     46  37  71 W9        30.20R
TRINIDAD       CLEAR     53  41  63 W18       30.14S
$$

COZ042>045-048>051-090-091-291300-
...NORTHEAST COLORADO...

CITY           SKY/WX    TMP DP  RH WIND       PRES   REMARKS
GREELEY ARPT   PTCLDY    46  37  71 CALM      30.07R
AKRON          CLEAR     53  48  83 W13       30.03R
BURLINGTON     CLEAR     52  48  86 W8        30.00S
WRAY           NOT AVBL
STERLING       CLEAR     54  52  94 S7        30.00S
HOLYOKE        CLEAR     59  52  77 W10       29.96S
FORT MORGAN    CLEAR     51  49  93 W8        30.04S
$$

COZ086-089-092>099-291300-
...SOUTHEAST COLORADO...

CITY           SKY/WX    TMP DP  RH WIND       PRES   REMARKS
PUEBLO         CLEAR     48  45  89 W7        30.08S
LA JUNTA       CLEAR     53  50  89 W13       30.04S
LAMAR          CLEAR     55  51  86 SW8       29.99S
SPRINGFIELD      N/A     56  49  77 W12       30.03S
$$



USA.gov is the U.S. government's official web portal to all federal, state and local government web resources and services.